INMARSAT 5-F3

Last updated on Jan. 29, 2020, 4:37 a.m. UTC

1 40882U 15042A   20028.57479919  .00000048  00000-0  00000+0 0  9998
2 40882   0.0174  76.4488 0000337  43.8602  33.4970  1.00271264 16173
UTC
Height (km)
Latitude
Longitude
Inclination
Orbital Period
UTC large
Height (km)
Speed (km/s)
/
Latitude / Longitude
Inclination (degrees)
Orbital Period (minutes)
Azimuth
Elevation
Range (km)
Doppler Factor
iOS Compass Heading
iOS Angle

Next 30 passes for location: Hong Kong

Rise time Rise Azimuth (degrees) Set time Set Azimuth (degrees) Duration Max altitude (degrees)

No matching passes for this satellites